Location: *
(11.3833°N, 7.5667°E)
Time: 08:21:17
(UTC+00:00)

Daily predictions for brighter satellites

Satellite Brightness Start Highest point End
(mag) Time Altitude Azimuth Time Altitude Azimuth Time Altitude Azimuth
Atlas Centaur 2 2.5 17:22:35 10° NW 17:29:16 55° NNE 17:34:28 10° ESE
USA 238 DEB 3.9 17:24:04 10° SSW 17:30:41 76° WNW 17:37:22 10° NNE
USA 238 3.9 17:24:10 10° SSW 17:30:47 77° WNW 17:37:29 10° NNE
Cosmos 1908 3.2 17:27:42 10° S 17:31:34 62° E 17:35:25 10° NNE
Cosmos 2278 Rocket 2.9 17:30:23 10° SSW 17:35:56 61° WNW 17:41:31 10° N
Cosmos 1727 Rocket 4.4 17:33:21 10° SSE 17:39:01 38° E 17:44:38 10° NNE
Cosmos 2239 Rocket 4.4 17:34:49 10° N 17:40:54 70° E 17:47:01 10° S
NOAA 12 4.0 17:35:46 10° SSE 17:40:59 71° ENE 17:46:13 10° N
USA 116 3.7 17:38:04 10° N 17:41:35 81° W 17:45:33 10° SSW
CZ-4C R/B 3.2 17:38:43 10° NNW 17:46:44 61° ENE 17:54:59 10° SE
COSMO-SKYMED 1 4.2 17:43:28 10° N 17:47:28 38° WNW 17:51:29 10° SW
Cosmos 1821 Rocket 4.1 17:42:51 10° N 17:49:00 84° W 17:55:16 10° S
Cosmos 968 Rocket 3.4 17:44:06 10° N 17:49:20 72° ENE 17:54:30 10° SSE
Cosmos 1354 Rocket 3.9 17:50:14 10° N 17:55:26 72° ENE 18:00:40 10° SSE
CSL-04 Rocket 4.1 17:51:11 10° SE 17:56:18 39° ENE 18:01:24 10° N
NOSS 3-2 (A) 4.1 17:51:03 10° SW 17:56:19 50° WNW 18:01:50 10° N
USA 234 3.5 17:50:54 10° NE 17:57:13 52° SE 18:03:32 10° SSW
ARIANE 5 R/B 4.2 17:54:33 10° SW 17:57:56 30° SSE 18:07:53 13° ESE
Cosmos 1953 Rocket 3.7 17:53:48 10° N 17:58:05 74° W 18:02:23 10° S
Cosmos 1934 Rocket 4.0 17:52:08 10° N 17:58:27 68° E 18:04:46 10° SSE
SWIFT 2.7 17:55:41 10° SW 17:59:50 52° SSE 18:02:25 21° E
Lacrosse 5 rocket 3.1 17:58:32 10° NNE 18:00:29 15° NE 18:00:29 15° NE
ATLAS 5 CENTAUR R/B 2.7 17:57:01 10° SW 18:01:29 58° SSE 18:12:47 18° ENE
SEDSat Delta rocket 3.3 17:56:51 10° WSW 18:02:07 79° NNW 18:05:28 19° NE
GPS 2-12 Rocket1 4.4 17:59:49 10° WNW 18:03:46 27° N 18:06:12 18° NE
Cosmos 1535 Rocket 4.4 17:58:58 10° N 18:05:05 81° E 18:11:10 10° S
Cosmos 1812 Rocket 3.4 18:06:19 10° S 18:10:41 80° E 18:15:04 10° N
Cosmos 1328 3.6 18:08:24 10° N 18:12:20 82° E 18:16:14 10° S
Cosmos 1242 Rocket 2.5 18:09:23 10° N 18:13:03 88° W 18:16:40 10° S
CZ-4 R/B 1.4 18:10:28 10° S 18:14:32 86° W 18:18:40 10° NNW
NOSS 3-2 (C) 3.9 18:14:41 10° SW 18:20:01 53° WNW 18:25:35 10° NNE
YAOGAN 1 2.4 18:16:12 10° SSE 18:20:31 78° ENE 18:24:50 10° N
SL-24 R/B 4.3 18:18:46 10° NNE 18:23:32 53° E 18:27:46 10° S
BREEZE-M DEB (TANK) 3.8 18:11:34 10° SW 18:26:11 85° NW 18:28:57 27° NE
Cosmos 1300 3.0 18:27:14 10° SSW 18:31:00 66° W 18:34:46 10° N
Hubble Space Telescope 3.6 18:29:40 10° SW 18:31:17 12° SSW 18:32:54 10° S
Cosmos 2369 Rocket 4.1 18:28:21 10° SSE 18:29:20 14° SE 18:29:20 14° SE
YAOGAN 6 4.2 18:30:32 10° SSW 18:33:57 36° W 18:37:22 10° NNW
Meteor 2-1 Rocket 4.0 18:28:43 10° S 18:34:12 72° E 18:39:40 10° N
Cosmos 1763 Rocket 3.6 18:29:31 10° S 18:34:40 54° ESE 18:35:51 44° ENE
ASTRO E2 2.7 18:37:55 10° WNW 18:41:40 78° WNW 18:41:40 78° WNW
Cosmos 1153 Rocket 4.3 18:39:20 10° N 18:45:26 67° E 18:51:33 10° SSE
Centaur D-1AR AC-41 3.2 18:42:30 10° W 18:48:20 48° NNW 18:48:41 46° N
ATLAS 3B R/B 3.4 18:48:11 10° SW 18:54:52 50° WNW 19:01:17 10° N
ADEOS Rocket 3.1 18:50:11 10° NNE 18:57:24 73° ESE 19:03:54 10° S
COSMOS 2406 3.4 19:00:07 10° NNW 19:05:48 70° WSW 19:08:13 35° S
CENTAUR R/B 3.8 19:01:36 10° WSW 19:06:17 30° WNW 19:11:09 11° N
Cosmos 1943 Rocket 3.6 19:02:07 10° S 19:04:27 26° S 19:04:27 26° S
Atlas Centaur 2 3.3 19:13:09 10° W 19:18:04 31° SW 19:18:04 31° SW
Cosmos 2344 3.6 19:25:21 10° SSW 19:33:38 80° SW 19:33:38 80° SW
CZ-3B R/B 4.3 19:14:05 10° WNW 19:36:15 62° NNE 19:39:57 56° NE
